This demonstration page uses our WeatherBlox Daily Observations layout. Learn more.

Left ArrowRight Arrow

39.29038, -76.61219

Hourly Observations for February 9, 2017

Temp ( °F °C ) Dew Point ( °F °C ) Humidity (%) Winds ( mph kmh ) Pressure ( in mb ) Visibility ( mi km ) Precip ( " mm )
12:54 am 00:54 undefined 50 10 39 3.9 66 66 undefined N/A 29.58 1002 N/A N/A
1:54 am 01:54 undefined 49 9.4 39 3.9 69 69 undefined N/A 29.53 1000 N/A N/A
2:54 am 02:54 undefined 48 8.9 40 4.4 74 74 undefined N/A 29.49 999 N/A N/A
3:54 am 03:54 undefined 47 8.3 41 5 80 80 undefined N/A 29.49 999 N/A 0.09 2.29
4:54 am 04:54 undefined 41 5 35 1.7 79 79 undefined N/A 29.49 999 N/A 0.10 2.54
5:54 am 05:54 undefined 37 2.8 31 -0.6 79 79 undefined N/A 29.53 1000 N/A 0.05 1.27
6:54 am 06:54 undefined 37 2.8 31 -0.6 79 79 undefined N/A 29.59 1002 N/A 0.01 0.25
7:54 am 07:54 undefined 35 1.7 27 -2.8 72 72 undefined N/A 29.63 1003 N/A 0.01 0.25
8:54 am 08:54 undefined 34 1.1 23 -5 64 64 undefined N/A 29.69 1006 N/A N/A
9:54 am 09:54 undefined 35 1.7 22 -5.6 59 59 undefined N/A 29.75 1007 N/A N/A
10:54 am 10:54 undefined 34 1.1 21 -6.1 59 59 undefined N/A 29.75 1008 N/A N/A
11:54 am 11:54 undefined 33 0.6 18 -7.8 54 54 undefined N/A 29.77 1008 N/A N/A
12:54 pm 12:54 undefined 33 0.6 12 -11.1 42 42 undefined N/A 29.81 1009 N/A N/A
1:54 pm 13:54 undefined 33 0.6 10 -12.2 38 38 undefined N/A 29.82 1010 N/A N/A
2:54 pm 14:54 undefined 34 1.1 11 -11.7 38 38 undefined N/A 29.84 1011 N/A N/A
3:54 pm 15:54 undefined 34 1.1 12 -11.1 40 40 undefined N/A 29.86 1011 N/A N/A
4:54 pm 16:54 undefined 34 1.1 13 -10.6 42 42 undefined N/A 29.90 1013 N/A N/A
5:54 pm 17:54 undefined 30 -1.1 9 -12.8 41 41 undefined N/A 29.94 1014 N/A N/A
6:54 pm 18:54 undefined 29 -1.7 4 -15.6 34 34 undefined N/A 30.08 1019 N/A N/A
7:54 pm 19:54 undefined 29 -1.7 4 -15.6 34 34 undefined N/A 30.11 1020 N/A N/A
8:54 pm 20:54 undefined 28 -2.2 3 -16.1 34 34 undefined N/A 30.06 1018 N/A N/A
9:54 pm 21:54 undefined 28 -2.2 3 -16.1 34 34 undefined N/A 30.15 1021 N/A N/A
10:54 pm 22:54 undefined 27 -2.8 6 -14.4 41 41 undefined N/A 30.24 1024 N/A N/A
11:54 pm 23:54 undefined 27 -2.8 7 -13.9 43 43 undefined N/A 30.16 1021 N/A N/A

Powered by AerisWeather